Weather Roundup
Issued by NWS Chicago, IL

Home | Current Version | Previous Version | Text Only | Print | Product List | Glossary On
Versions: 1 2 3 4 5 6 7 8 9 10 11 12 13 14 15 16 17 18 19 20 21 22 23 24 25 26 27 28 29 30 31 32 33 34 35 36 37 38 39 40 41 42 43 44 45 46 47 48 49 50
000
NZUS59 KLOT 222009
HRRLOT

CHICAGO AREA WEATHER ROUNDUP
NATIONAL WEATHER SERVICE CHICAGO/ROMEOVILLE IL
300 PM CDT SAT JUL 22 2017

NOTE: "FAIR" INDICATES FEW OR NO CLOUDS BELOW 12,000 FEET WITH NO
SIGNIFICANT WEATHER AND/OR OBSTRUCTIONS TO VISIBILITY.

* THESE STATIONS ARE NOT UNDER NWS QUALITY CONTROL. THEY ALSO MAY NOT
  REPORT WEATHER SUCH AS PRECIPITATION OR FOG.

ILZ005-006-012>014-019>023-222100-
NORTHEAST ILLINOIS

CITY           SKY/WX    TMP DP  RH WIND       PRES   REMARKS
OHARE          CLOUDY    84  69  60 NW8       29.81F HX  88
MIDWAY         PTSUNNY   85  68  56 NW10      29.81F HX  88
AURORA         MOSUNNY   84  74  71 W7        29.83S HX  91
LANSING*       MOSUNNY   84  66  54 NW5       29.82F HX  86
JOLIET*        MOSUNNY   86  73  66 W6        29.82F HX  93
WAUKEGAN       PTSUNNY   79  72  79 N6        29.82S HX  82
DUPAGE AIRPORT PTSUNNY   84  73  69 W7        29.82S HX  90
WHEELING       CLOUDY    83  71  67 W8        29.83S HX  87
MORRIS*        SUNNY     83  72  70 NW5       29.81F HX  88
LEWIS AIRPORT* MOSUNNY   84  70  62 W7        29.82S HX  88
NORTHERLY ISL    N/A     76  70  82 E6          N/A
$$

WIZ051-052-058>065-066-070>072-222100-
SOUTHEAST WISCONSIN

CITY           SKY/WX    TMP DP  RH WIND       PRES   REMARKS
MILWAUKEE      PTSUNNY   79  72  79 E5        29.82F HX  82
KENOSHA*       CLOUDY    82  71  69 W7        29.82F HX  86
RACINE*        CLOUDY    77  72  84 CALM      29.83F
WAUKESHA       PTSUNNY   77  70  78 SW6       29.83F
WEST BEND      CLOUDY    79  68  69 CALM      29.82S HX  81
$$

INZ001>003-010>013-019-020-222100-
NORTHWEST INDIANA

CITY           SKY/WX    TMP DP  RH WIND       PRES   REMARKS
GARY*          PTSUNNY   82  70  65 NE7       29.83F HX  86
MICHIGAN CITY* NOT AVBL
RENSSELAER*    NOT AVBL
VALPARAISO     MOSUNNY   85  72  65 NE6       29.83S HX  91
$$

LMZ740>746-222100-
SOUTHERN LAKE MICHIGAN

STATION/POSITION TIME  SKY/WX   TEMP WIND        PRES    VSBY
                                AIR  DIR/SP/G
                 (UTC)          (F)  (DEG/KT/KT) (MB)    (MI)
HARRISON CRIB    1910            74  100/  8/  8   N/A
BURNHAM HARBOR   2000            76                N/A
CALUMET HARBOR   1948            74   60/  7/ 10 1009.6F
BURNS HARBOR     1940            75   50/  7/  8 1010.8S
MICHIGAN CITY    1940            77  360/  1/  2   N/A
$$

ABBREVIATIONS USED IN REMARKS
   TC - TEMPERATURE IN CELSIUS
  WCI - WIND CHILL INDEX
   HX - HEAT INDEX
  VSB - VISIBILITY
$$




USA.gov is the U.S. government's official web portal to all federal, state and local government web resources and services.